When you browse on this site, cookies collect data to enhance your experience and personalize the content and advertising you see.
Visit our Privacy Policy to learn more. By continuing to use the site, you agree to this use of cookies and data.

Tiempo cada hora Petropavlovsk

Hoy, 15 Julio, Miércoles

Tiempo Temperatura Precipitaciones Viento Presión Humedad
00:00 +20°C° 0 mm 3 mps 754 mmHg 79%
01:00 +19°C° 0 mm 2 mps 754 mmHg 80%
02:00 +19°C° 0 mm 2 mps 754 mmHg 82%
03:00 +18°C° 0 mm 2 mps 754 mmHg 83%
04:00 +18°C° 0 mm 2 mps 754 mmHg 85%
05:00 +19°C° 0 mm 1 mps 754 mmHg 85%
06:00 +21°C° 0 mm 1 mps 755 mmHg 79%
07:00 +23°C° 0 mm 1 mps 755 mmHg 73%
08:00 +24°C° 0 mm 1 mps 755 mmHg 67%
09:00 +25°C° 0 mm 1 mps 755 mmHg 62%
10:00 +27°C° 0 mm 1 mps 755 mmHg 57%
11:00 +28°C° 0 mm 2 mps 755 mmHg 52%
12:00 +29°C° 0 mm 2 mps 755 mmHg 49%
13:00 +29°C° 0 mm 2 mps 755 mmHg 47%
14:00 +30°C° 0 mm 2 mps 754 mmHg 44%
15:00 +30°C° 0 mm 2 mps 754 mmHg 45%
16:00 +30°C° 0 mm 2 mps 754 mmHg 46%
17:00 +31°C° 0 mm 2 mps 753 mmHg 47%
18:00 +29°C° 0 mm 2 mps 753 mmHg 53%
19:00 +27°C° 0 mm 2 mps 753 mmHg 59%
20:00 +26°C° 0 mm 2 mps 753 mmHg 65%
21:00 +25°C° 0 mm 2 mps 753 mmHg 67%
22:00 +23°C° 0 mm 2 mps 753 mmHg 69%
23:00 +21°C° 0 mm 2 mps 753 mmHg 71%

Mañana, 16 Julio, Jueves

Tiempo Temperatura Precipitaciones Viento Presión Humedad
00:00 +21°C° 0 mm 2 mps 753 mmHg 72%
01:00 +20°C° 0 mm 2 mps 753 mmHg 74%
02:00 +19°C° 0 mm 2 mps 753 mmHg 76%
03:00 +19°C° 0 mm 2 mps 753 mmHg 77%
04:00 +20°C° 0 mm 1 mps 753 mmHg 78%
05:00 +19°C° 0 mm 1 mps 753 mmHg 79%
06:00 +21°C° 0 mm 1 mps 753 mmHg 73%
07:00 +23°C° 0 mm 1 mps 753 mmHg 68%
08:00 +25°C° 0 mm 1 mps 753 mmHg 62%
09:00 +26°C° 0 mm 2 mps 753 mmHg 58%
10:00 +27°C° 0 mm 2 mps 753 mmHg 54%
11:00 +29°C° 0 mm 2 mps 753 mmHg 50%
12:00 +29°C° 0 mm 2 mps 752 mmHg 48%
13:00 +30°C° 0 mm 2 mps 752 mmHg 46%
14:00 +31°C° 0 mm 2 mps 752 mmHg 44%
15:00 +31°C° 0 mm 2 mps 752 mmHg 44%
16:00 +31°C° 0 mm 2 mps 752 mmHg 45%
17:00 +31°C° 0 mm 1 mps 751 mmHg 45%
18:00 +29°C° 0 mm 2 mps 751 mmHg 51%
19:00 +28°C° 0 mm 2 mps 751 mmHg 58%
20:00 +26°C° 0 mm 2 mps 750 mmHg 64%
21:00 +25°C° 0 mm 2 mps 750 mmHg 66%
22:00 +24°C° 0 mm 2 mps 750 mmHg 68%
23:00 +23°C° 0 mm 1 mps 750 mmHg 70%

Pasado mañana, 17 Julio, Viernes

Tiempo Temperatura Precipitaciones Viento Presión Humedad
00:00 +22°C° 0 mm 1 mps 750 mmHg 71%
01:00 +22°C° 0 mm 1 mps 750 mmHg 72%
02:00 +21°C° 0 mm 1 mps 750 mmHg 74%
03:00 +21°C° 0 mm 1 mps 750 mmHg 74%
04:00 +21°C° 0 mm 1 mps 750 mmHg 75%
05:00 +21°C° 0 mm 1 mps 751 mmHg 75%
06:00 +22°C° 0 mm 1 mps 750 mmHg 70%
07:00 +24°C° 0 mm 1 mps 750 mmHg 66%
08:00 +26°C° 0 mm 1 mps 750 mmHg 61%
09:00 +27°C° 0 mm 2 mps 750 mmHg 57%
10:00 +28°C° 0 mm 2 mps 750 mmHg 54%
11:00 +29°C° 0 mm 2 mps 750 mmHg 50%
12:00 +30°C° 0 mm 2 mps 750 mmHg 49%
13:00 +30°C° 0 mm 2 mps 750 mmHg 48%
14:00 +31°C° 0 mm 2 mps 750 mmHg 47%
15:00 +31°C° 0 mm 3 mps 749 mmHg 48%
16:00 +31°C° 0 mm 3 mps 749 mmHg 50%
17:00 +31°C° 0 mm 3 mps 749 mmHg 51%
18:00 +29°C° 0 mm 2 mps 749 mmHg 57%
19:00 +28°C° 0 mm 2 mps 748 mmHg 62%
20:00 +26°C° 0 mm 1 mps 748 mmHg 68%
21:00 +25°C° 0 mm 1 mps 748 mmHg 70%
22:00 +24°C° 0 mm 1 mps 748 mmHg 71%
23:00 +23°C° 0 mm 1 mps 748 mmHg 73%

18 Julio, Sábado

Tiempo Temperatura Precipitaciones Viento Presión Humedad
00:00 +23°C° 0 mm 1 mps 748 mmHg 74%
01:00 +23°C° 0 mm 1 mps 748 mmHg 75%
02:00 +23°C° 0 mm 1 mps 748 mmHg 76%
03:00 +21°C° 0 mm 2 mps 748 mmHg 79%
04:00 +21°C° 0 mm 2 mps 748 mmHg 81%
05:00 +21°C° 0 mm 2 mps 748 mmHg 83%
06:00 +24°C° 0 mm 2 mps 748 mmHg 79%
07:00 +25°C° 0 mm 3 mps 748 mmHg 74%
08:00 +27°C° 0 mm 3 mps 748 mmHg 69%
09:00 +28°C° 0 mm 3 mps 748 mmHg 65%
10:00 +30°C° 0 mm 3 mps 748 mmHg 60%
11:00 +31°C° 0 mm 3 mps 748 mmHg 55%
12:00 +31°C° 0 mm 3 mps 748 mmHg 52%
13:00 +33°C° 0 mm 3 mps 748 mmHg 48%
14:00 +34°C° 0 mm 2 mps 747 mmHg 44%
15:00 +34°C° 0 mm 2 mps 747 mmHg 44%
16:00 +34°C° 0 mm 2 mps 747 mmHg 45%
17:00 +34°C° 0 mm 2 mps 747 mmHg 45%
18:00 +31°C° 0 mm 2 mps 747 mmHg 53%
19:00 +30°C° 0 mm 3 mps 747 mmHg 62%
20:00 +28°C° 0 mm 3 mps 747 mmHg 70%
21:00 +27°C° 0 mm 3 mps 747 mmHg 76%
22:00 +25°C° 0 mm 3 mps 746 mmHg 81%
23:00 +24°C° 0 mm 3 mps 746 mmHg 87%

19 Julio, Domingo

Tiempo Temperatura Precipitaciones Viento Presión Humedad
00:00 +22°C° 0 mm 3 mps 746 mmHg 86%
01:00 +21°C° 0 mm 3 mps 746 mmHg 86%
02:00 +21°C° 0 mm 2 mps 746 mmHg 85%
03:00 +20°C° 0 mm 2 mps 746 mmHg 86%
04:00 +19°C° 0 mm 2 mps 746 mmHg 87%
05:00 +19°C° 0 mm 2 mps 746 mmHg 88%
06:00 +20°C° 0 mm 2 mps 746 mmHg 83%
07:00 +22°C° 0 mm 3 mps 746 mmHg 77%
08:00 +24°C° 0 mm 3 mps 746 mmHg 72%
09:00 +25°C° 0 mm 3 mps 745 mmHg 65%
10:00 +27°C° 0 mm 3 mps 745 mmHg 59%
11:00 +28°C° 0 mm 3 mps 745 mmHg 52%
12:00 +29°C° 0 mm 3 mps 745 mmHg 49%
13:00 +30°C° 0 mm 3 mps 745 mmHg 46%
14:00 +31°C° 0 mm 3 mps 744 mmHg 43%
15:00 +30°C° 0 mm 3 mps 744 mmHg 44%
16:00 +30°C° 0 mm 3 mps 744 mmHg 44%
17:00 +30°C° 0 mm 2 mps 744 mmHg 45%
18:00 +29°C° 0 mm 2 mps 744 mmHg 51%
19:00 +27°C° 0 mm 2 mps 743 mmHg 57%
20:00 +25°C° 0 mm 1 mps 743 mmHg 62%
21:00 +24°C° 0 mm 1 mps 743 mmHg 64%
22:00 +23°C° 0 mm 1 mps 743 mmHg 65%
23:00 +21°C° 0 mm 1 mps 742 mmHg 67%

20 Julio, Lunes

Tiempo Temperatura Precipitaciones Viento Presión Humedad
00:00 +21°C° 0 mm 1 mps 742 mmHg 67%
01:00 +20°C° 0 mm 1 mps 742 mmHg 68%
02:00 +17°C° 0 mm 0 mps 742 mmHg 68%
03:00 +17°C° 0 mm 0 mps 742 mmHg 69%
04:00 +18°C° 0 mm 0 mps 742 mmHg 70%
05:00 +18°C° 0 mm 0 mps 742 mmHg 70%
06:00 +22°C° 0 mm 1 mps 742 mmHg 67%
07:00 +24°C° 0 mm 1 mps 742 mmHg 64%
08:00 +26°C° 0 mm 2 mps 742 mmHg 60%
09:00 +27°C° 0 mm 2 mps 741 mmHg 57%
10:00 +29°C° 0 mm 2 mps 741 mmHg 54%
11:00 +30°C° 0 mm 2 mps 741 mmHg 51%
12:00 +31°C° 0 mm 2 mps 741 mmHg 50%
13:00 +31°C° 0 mm 2 mps 741 mmHg 48%
14:00 +32°C° 0 mm 1 mps 741 mmHg 47%
15:00 +30°C° 0.4 mm 2 mps 741 mmHg 54%
16:00 +28°C° 0.4 mm 3 mps 741 mmHg 61%
17:00 +27°C° 0.4 mm 4 mps 741 mmHg 68%
18:00 +25°C° 2.6 mm 5 mps 741 mmHg 75%
19:00 +22°C° 2.6 mm 6 mps 741 mmHg 81%
20:00 +20°C° 2.6 mm 7 mps 741 mmHg 87%
21:00 +20°C° 0.2 mm 6 mps 741 mmHg 88%
22:00 +20°C° 0.2 mm 5 mps 741 mmHg 89%
23:00 +21°C° 0.2 mm 4 mps 742 mmHg 90%
Mostrar más